Weather Roundup
Issued by NWS Corpus Christi, TX

Home | Current Version | Previous Version | Text Only | Print | Product List | Glossary On
Versions: 1 2 3 4 5 6 7 8 9 10 11 12 13 14 15 16 17 18 19 20 21 22 23 24 25 26 27 28 29 30 31 32 33 34 35 36 37 38 39 40 41 42 43 44 45 46 47 48 49 50
000
ASUS44 KCRP 280510
HRRCRP

SOUTH TEXAS REGIONAL WEATHER ROUNDUP
NATIONAL WEATHER SERVICE CORPUS CHRISTI TX
1200 AM CDT FRI AUG 28 2015


TXZ229>244-280600-
...CORPUS CHRISTI AREA OBSERVATIONS...

CITY           SKY/WX    TMP DP  RH WIND       PRES   REMARKS
CORPUS CHRISTI MOCLDY    76  66  71 S7        30.01S
NAS CORPUS CHR PTCLDY    77  68  73 SE9       30.01S
ROCKPORT       PTCLDY    78  67  68 S5        30.00F
KINGSVILLE NAS MOCLDY    76  69  79 S5        30.02S
ALICE          PTCLDY    72  66  81 S5        30.01S
FALFURRIAS     PTCLDY    73  65  76 CALM      30.01F
$$

...VICTORIA AREA OBSERVATIONS...

CITY           SKY/WX    TMP DP  RH WIND       PRES   REMARKS
VICTORIA       MOCLDY    74  67  78 S6        30.01F
BEEVILLE       FAIR      75  68  78 CALM      30.02S
PLEASANTON     CLEAR     79  64  59 SE6       30.03S
SAN ANTONIO    PTCLDY    82  60  47 SE9       30.04R
$$

...LAREDO AREA OBSERVATIONS...

CITY           SKY/WX    TMP DP  RH WIND       PRES   REMARKS
LAREDO         CLEAR     81  61  50 SE8       30.03R
COTULLA        CLEAR     82  63  52 SE13      30.01R
DEL RIO        CLEAR     85  60  42 SE8       29.98F
MCALLEN        CLEAR     78  68  71 E6        30.02F
HEBBRONVILLE   NOT AVBL
$$

...OTHER TEXAS OBSERVATIONS...

CITY           SKY/WX    TMP DP  RH WIND       PRES   REMARKS
BROWNSVILLE    CLEAR     75  69  81 CALM      30.00F
HOUSTON        MOCLDY    74  67  78 CALM      30.01R
COL. STATION   PTCLDY    78  66  66 E3        30.01R
AUSTIN         PTCLDY    73  61  65 CALM      30.01S
WACO           CLEAR     76  61  59 E7        30.01S
FORT WORTH     PTCLDY    78  61  55 SE7       29.99F
WICHITA FALLS  PTCLDY    78  64  61 SE16      29.96F
LUBBOCK        CLOUDY    83  50  31 S12       30.04F
EL PASO        CLOUDY    86  55  34 W6        30.08S
$$

...MARINE OBSERVATIONS...

STATION/POSITION TIME  SKY/WX   TEMP    WIND        PRES    VSBY  WAVE   SWELL
                                AIR SEA DIR/SP/G                  HT/PER HT/PER
                 (UTC)          (F)     (DEG/KT/KT) (MB)    (MI)  (FT/S) (FT/S)
PORT ARANSAS     0500            83 86  150/ 12/ 13 1016.9F
BUOY 90 E PORT A 0450            84 85  110/  6/  8 1016.2F         2/ 5   2/ 5
BUOY 45 SE BAFFI 0450            83 84   80/  8/ 10 1016.0F         2/ 6   2/ 6
BUOY 200 E PT IS 0450            83 86   30/  8/ 12 1015.8F         2/ 5   2/ 5
BUOY 15 E GALVES 0450            84 86  170/  4/  6 1015.5F         1/ 4
$$


USA.gov is the U.S. government's official web portal to all federal, state and local government web resources and services.